[[{"header":{"parameterUnit":"m.s-1","parameterCategory":1,"la1":30.2991,"la2":30.254,"lo1":-89.0895,"lo2":-89.0444,"dy":0.0017,"dx":0.0017,"nx":28,"ny":28,"refTime":"2025-03-02T09:00:00:Z","depth":0,"parameterNumber":2,"parameterNumberName":"U-component_of_WINDS"},"data":[0,0,0,0,0,0,0,0,0,0,0,0,0,0,0,0,0,0,0,0,0,0,0,0,0,0,0,0,0,0,0,0,0,0,0,0,0,0,0,0,0,0,0,0,0,0,0,0,0,0,0,0,0,0,0,0,0,0,-6.1693,-6.1694,0,-6.1817,-6.1819,-6.182,-6.1792,-6.179,-6.1788,-6.1785,-6.191,-6.1916,-6.1921,0,0,0,0,0,0,0,0,0,0,0,0,0,-6.143,-6.1435,-6.1693,-6.1694,-6.1696,-6.1817,-6.1819,-6.182,-6.1793,-6.179,-6.1787,-6.1784,-6.1908,-6.1915,-6.1922,0,0,0,0,0,0,0,0,0,0,0,0,0,-6.1548,-6.1436,-6.1692,-6.1697,-6.1698,-6.1817,-6.1819,-6.1821,-6.1793,-6.179,-6.1786,-6.1783,-6.1906,-6.1914,-6.1923,-6.2044,0,0,-6.1948,-6.1951,0,0,0,0,0,0,0,0,-6.1541,-6.1558,-6.1695,-6.1697,-6.1699,-6.1786,-6.1772,-6.1895,-6.1794,-6.1757,-6.1785,-6.1781,-6.1872,-6.1882,-6.1913,-6.2049,-6.2055,-6.1948,-6.1953,-6.1957,-6.1959,0,0,0,0,0,0,0,-6.1533,-6.1552,-6.1742,-6.1697,-6.1699,-6.1692,-6.1705,-6.1795,-6.1832,-6.176,-6.1758,-6.1774,-6.1872,-6.1905,-6.1916,-6.2057,-6.1948,-6.1956,-6.1961,-6.1964,-6.2298,-6.2302,0,0,0,0,0,0,-6.1524,-6.1546,-6.1738,-6.1746,-6.161,-6.17,-6.1714,-6.1761,-6.1831,-6.1839,-6.1776,-6.1772,-6.1893,-6.1906,-6.192,-6.2066,-6.1957,-6.1965,-6.1969,-6.2294,-6.2299,-6.2303,0,0,0,0,0,0,-6.1518,-6.1541,-6.1733,-6.1645,-6.1669,-6.1708,-6.1761,-6.1766,-6.1799,-6.1844,-6.185,-6.1804,-6.1891,-6.1909,-6.2013,-6.207,-6.1968,-6.1976,-6.229,-6.2296,-6.2301,-6.2358,0,0,0,0,0,0,-6.1511,-6.1539,-6.1586,-6.1647,-6.1674,-6.1824,-6.1765,-6.177,-6.1814,-6.1809,-6.1871,-6.1878,-6.1889,-6.2001,-6.2022,-6.2079,-6.1982,-6.2285,-6.2292,-6.2299,-6.2351,-6.2365,-6.2377,0,0,0,0,0,-6.1501,-6.1596,-6.1588,-6.1611,-6.1733,-6.1828,-6.1843,-6.1855,-6.1818,-6.1865,-6.1894,-6.1876,-6.2061,-6.2012,-6.2035,-6.2096,-6.2281,-6.229,-6.2299,-6.2345,-6.2362,-6.2377,0,0,0,0,0,0,-6.154,-6.1604,-6.1596,-6.1714,-6.1766,-6.1823,-6.1882,-6.1873,-6.1935,-6.1928,-6.1939,-6.1954,-6.206,-6.2089,-6.2033,-6.2217,-6.2166,-6.218,-6.2193,-6.221,-6.2223,-6.2212,-6.1989,0,0,0,0,0,-6.1562,-6.1634,-6.1687,-6.1785,-6.1812,-6.1843,-6.1884,-6.1889,-6.1943,-6.1964,-6.2001,-6.2053,-6.2123,-6.2169,-6.2235,-6.2357,-6.2369,-6.241,-6.2423,-6.2433,-6.2444,-6.251,-6.2528,-6.2332,-6.2332,-6.2332,0,0,-6.1609,-6.1653,-6.1697,-6.1794,-6.1835,-6.1908,-6.1861,-6.1941,-6.1995,-6.1976,-6.2077,-6.2106,-6.2165,-6.2278,-6.233,-6.2306,-6.2502,-6.2445,-6.2453,-6.2458,-6.252,-6.2539,-6.2555,-6.2338,-6.2337,-6.2336,0,0,-6.173,-6.1772,-6.1858,-6.1901,-6.1963,-6.1983,-6.2004,-6.2064,-6.2083,-6.2184,-6.2172,-6.2237,-6.2357,-6.2399,-6.2437,-6.2577,-6.2562,-6.2599,-6.2665,-6.2729,-6.2744,-6.2758,-6.2806,-6.2823,-6.261,-6.261,-6.2611,0,-6.1779,-6.189,-6.1904,-6.1985,-6.2027,-6.2016,-6.2103,-6.2143,-6.2224,-6.2254,-6.2226,-6.2377,-6.2416,-6.2538,-6.2573,-6.2604,-6.2628,-6.259,-6.2741,-6.2755,-6.2768,-6.2814,-6.2832,-6.2614,-6.2614,-6.2613,-6.2613,0,-6.1947,-6.2024,-6.2087,-6.2166,-6.2216,-6.23,-6.2326,-6.2375,-6.2376,-6.2399,-6.2503,-6.255,-6.2626,-6.2656,-6.2658,-6.278,-6.2762,-6.2738,-6.2686,-6.279,-6.2833,-6.2851,-6.262,-6.2618,-6.2617,-6.2616,0,0,-6.2093,-6.2181,-6.2203,-6.2239,-6.2309,-6.2368,-6.2452,-6.2527,-6.2568,-6.2626,-6.2695,-6.2798,-6.2777,-6.2819,-6.2826,-6.2883,-6.2989,-6.2851,-6.2853,-6.2873,-6.3124,-6.314,-6.316,-6.2981,-6.2985,-6.2987,-6.3118,0,-6.222,-6.2367,-6.2382,-6.2514,-6.2585,-6.2576,-6.2649,-6.2699,-6.2724,-6.2787,-6.2814,-6.2886,-6.2853,-6.2879,-6.2934,-6.2964,-6.3039,-6.2955,-6.3044,-6.3047,-6.3027,-6.3183,-6.32,-6.3321,-6.3136,-6.3139,-6.3141,0,-6.2386,-6.2449,-6.2587,-6.2647,-6.2678,-6.2743,-6.2813,-6.2875,-6.2932,-6.2946,-6.2994,-6.2994,-6.308,-6.3028,-6.3146,-6.3088,-6.3126,-6.3147,-6.3152,-6.3158,-6.3098,-6.3191,-6.336,-6.3378,-6.3168,-6.3166,-6.3164,0,-6.2476,-6.2596,-6.2694,-6.2725,-6.2798,-6.2844,-6.2876,-6.293,-6.2975,-6.3037,-6.3065,-6.3137,-6.3175,-6.323,-6.3248,-6.3209,-6.3365,-6.3315,-6.3378,-6.3377,-6.3408,-6.3405,-6.3583,-6.3437,-6.3437,-6.3437,-6.3436,0,-6.2614,-6.2699,-6.2735,-6.2796,-6.289,-6.2908,-6.3001,-6.3031,-6.308,-6.3145,-6.3143,-6.3204,-6.3227,-6.3292,-6.3308,-6.3402,-6.342,-6.3433,-6.3435,-6.3431,-6.3429,-6.3454,-6.3445,-6.3442,-6.3441,-6.344,-6.3439,0,-6.2729,-6.2758,-6.2864,-6.2925,-6.2942,-6.3009,-6.3061,-6.3119,-6.3144,-6.3227,-6.3247,-6.3286,-6.3363,-6.3388,-6.3481,-6.3492,-6.3601,-6.3598,-6.3582,-6.3581,-6.3642,-6.3635,-6.3839,-6.3866,-6.3705,-6.3707,-6.3708,0,-6.2814,-6.2879,-6.2947,-6.2991,-6.3026,-6.3097,-6.3143,-6.3163,-6.321,-6.3281,-6.3331,-6.3407,-6.3469,-6.3592,-6.3628,-6.3699,-6.3696,-6.3763,-6.3706,-6.37,-6.3694,-6.3689,-6.3695,-6.3772,-6.3774,-6.3775,-6.3776,0,-6.296,-6.2972,-6.3038,-6.3109,-6.3164,-6.3221,-6.3277,-6.3313,-6.3341,-6.3395,-6.3474,-6.3522,-6.3618,-6.3693,-6.3766,-6.3799,-6.3792,-6.3794,-6.3812,-6.3807,-6.3794,-6.38,-6.3608,-6.3788,-6.3787,-6.3786,-6.3786,-6.3785,-6.3061,-6.3119,-6.3176,-6.325,-6.3294,-6.3346,-6.3403,-6.3436,-6.3502,-6.3581,-6.359,-6.3675,-6.3731,-6.3828,-6.3865,-6.3931,-6.3912,-6.3938,-6.3945,-6.395,-6.3954,-6.3786,-6.3945,-6.3944,-6.3944,-6.3944,-6.3944,0,-6.3206,-6.3243,-6.3311,-6.3389,-6.3447,-6.3438,-6.3499,-6.3547,-6.3622,-6.3676,-6.3737,-6.3828,-6.3902,-6.3944,-6.4018,-6.4063,-6.4061,-6.4081,-6.4076,-6.4084,-6.3968,-6.3944,-6.4081,-6.4081,-6.4081,-6.4081,-6.4081,-6.4081,-6.3288,-6.3384,-6.3402,-6.352,-6.3556,-6.364,-6.3675,-6.3723,-6.3765,-6.3867,-6.3928,-6.3956,-6.4005,-6.4083,-6.415,-6.4161,-6.4187,-6.4208,-6.4216,-6.4106,-6.4092,-6.4079,-6.4056,-6.4214,-6.4214,-6.4327,-6.4328,-6.4328]},{"header":{"parameterUnit":"m.s-1","parameterCategory":1,"la1":30.2991,"la2":30.254,"lo1":-89.0895,"lo2":-89.0444,"dy":0.0017,"dx":0.0017,"nx":28,"ny":28,"refTime":"2025-03-02T09:00:00:Z","depth":0,"parameterNumber":3,"parameterNumberName":"V-component_of_WINDS"},"data":[0,0,0,0,0,0,0,0,0,0,0,0,0,0,0,0,0,0,0,0,0,0,0,0,0,0,0,0,0,0,0,0,0,0,0,0,0,0,0,0,0,0,0,0,0,0,0,0,0,0,0,0,0,0,0,0,0,0,4.8287,4.8288,0,4.8416,4.8418,4.8419,4.8426,4.8425,4.8423,4.8422,4.855,4.8554,4.8559,0,0,0,0,0,0,0,0,0,0,0,0,0,4.8042,4.8046,4.8286,4.8288,4.829,4.8416,4.8418,4.8419,4.8427,4.8425,4.8423,4.8421,4.8548,4.8554,4.8559,0,0,0,0,0,0,0,0,0,0,0,0,0,4.8157,4.8048,4.8286,4.8309,4.8312,4.8416,4.8418,4.842,4.8427,4.8425,4.8422,4.842,4.8546,4.8553,4.856,4.8649,0,0,4.8582,4.8585,0,0,0,0,0,0,0,0,4.8151,4.8166,4.8304,4.8307,4.8311,4.8403,4.8378,4.8496,4.8427,4.8383,4.8422,4.8419,4.8502,4.8513,4.8542,4.8655,4.866,4.8583,4.8587,4.859,4.8592,0,0,0,0,0,0,0,4.8143,4.8161,4.8338,4.8306,4.831,4.8311,4.8325,4.8401,4.8453,4.8387,4.8388,4.8403,4.8504,4.8535,4.8545,4.8662,4.8583,4.8589,4.8593,4.8596,4.8856,4.8859,0,0,0,0,0,0,4.8131,4.8154,4.8333,4.8341,4.8224,4.8317,4.8333,4.8376,4.8453,4.8462,4.8405,4.8403,4.8524,4.8537,4.8549,4.866,4.859,4.8597,4.8601,4.8853,4.8857,4.8859,0,0,0,0,0,0,4.8126,4.8147,4.8328,4.8248,4.8271,4.8324,4.8372,4.8379,4.8411,4.8466,4.8475,4.8427,4.8523,4.8539,4.8625,4.8664,4.86,4.8607,4.885,4.8854,4.8858,4.888,0,0,0,0,0,0,4.8119,4.8145,4.818,4.8249,4.8276,4.8403,4.8374,4.8383,4.8424,4.8422,4.849,4.8499,4.8522,4.8614,4.8632,4.8673,4.8612,4.8847,4.8852,4.8857,4.8876,4.8884,4.8891,0,0,0,0,0,4.811,4.8179,4.8181,4.8203,4.832,4.8405,4.842,4.8447,4.8427,4.8462,4.8498,4.8497,4.8657,4.8623,4.8643,4.8686,4.8845,4.8851,4.8856,4.8872,4.8882,4.8891,0,0,0,0,0,0,4.8111,4.8188,4.8192,4.8286,4.8339,4.8406,4.8451,4.8456,4.8515,4.8511,4.854,4.8555,4.864,4.8672,4.8632,4.8777,4.8748,4.8759,4.8754,4.8763,4.8771,4.8761,4.8618,0,0,0,0,0,4.8122,4.8186,4.825,4.8326,4.8353,4.8398,4.8435,4.8452,4.8507,4.8529,4.8571,4.8624,4.8686,4.8727,4.8787,4.888,4.8895,4.892,4.8928,4.8934,4.8942,4.8995,4.9007,4.8879,4.8879,4.8879,0,0,4.8146,4.8196,4.8234,4.8328,4.8371,4.8435,4.8416,4.8484,4.8532,4.8539,4.8623,4.8656,4.8717,4.8807,4.8849,4.8836,4.8981,4.8941,4.8946,4.8951,4.9003,4.9015,4.9025,4.8883,4.8882,4.8881,0,0,4.8222,4.8267,4.8336,4.8381,4.8447,4.8477,4.8493,4.856,4.8583,4.8669,4.8676,4.8732,4.8839,4.8882,4.8918,4.9014,4.9015,4.9033,4.9072,4.9123,4.9133,4.9143,4.9177,4.9189,4.9041,4.9041,4.9041,0,4.8243,4.8341,4.8371,4.844,4.8482,4.8493,4.8564,4.8605,4.8686,4.8714,4.8699,4.8835,4.8876,4.8978,4.9002,4.903,4.905,4.9025,4.913,4.9139,4.9148,4.9182,4.9195,4.9043,4.9042,4.9042,4.9042,0,4.8364,4.8432,4.848,4.8562,4.8608,4.8678,4.8717,4.8761,4.8774,4.8805,4.8892,4.8943,4.9015,4.904,4.9052,4.9144,4.9134,4.9124,4.9096,4.9162,4.9194,4.9207,4.9045,4.9044,4.9044,4.9043,0,0,4.8443,4.8542,4.8559,4.8597,4.8672,4.8725,4.8795,4.8868,4.8905,4.8961,4.9021,4.9112,4.9104,4.9145,4.9163,4.9208,4.9281,4.9193,4.9194,4.9208,4.9387,4.9394,4.9408,4.9283,4.9286,4.9288,4.9382,0,4.8528,4.8655,4.8685,4.8793,4.8857,4.887,4.8931,4.8983,4.9015,4.9073,4.9106,4.9171,4.9155,4.9181,4.9226,4.9263,4.9318,4.9256,4.9338,4.9341,4.9323,4.9425,4.9432,4.9518,4.9394,4.9396,4.9398,0,4.8644,4.8706,4.8821,4.889,4.8918,4.8973,4.9042,4.9098,4.9157,4.9177,4.9224,4.9238,4.9311,4.9279,4.9381,4.9338,4.9374,4.9397,4.9401,4.9409,4.9373,4.9436,4.9546,4.9559,4.9418,4.9416,4.9415,0,4.8691,4.8803,4.8887,4.8919,4.9001,4.904,4.9075,4.9133,4.9175,4.9236,4.9263,4.9331,4.9367,4.9419,4.945,4.9424,4.9549,4.952,4.9567,4.9566,4.9592,4.959,4.971,4.9615,4.9614,4.9614,4.9614,0,4.8783,4.8853,4.891,4.8962,4.9041,4.9074,4.9152,4.9187,4.9239,4.9297,4.9312,4.9366,4.9404,4.9463,4.9488,4.9568,4.9585,4.9602,4.9608,4.9601,4.9599,4.9624,4.9619,4.9618,4.9617,4.9616,4.9616,0,4.8849,4.889,4.8982,4.9054,4.9073,4.9129,4.9189,4.9239,4.9272,4.9346,4.9365,4.9415,4.9486,4.9523,4.961,4.9627,4.9718,4.9719,4.9698,4.97,4.9746,4.9741,4.9886,4.9907,4.9797,4.9798,4.9799,0,4.8905,4.896,4.9038,4.9079,4.9117,4.9182,4.9226,4.9261,4.9306,4.938,4.9422,4.9494,4.9553,4.9666,4.9709,4.9777,4.9781,4.9827,4.9791,4.9783,4.9782,4.9779,4.9785,4.9833,4.9834,4.9835,4.9836,0,4.9001,4.9019,4.9083,4.9154,4.9207,4.9264,4.9321,4.9353,4.9398,4.9447,4.9521,4.9568,4.9659,4.9731,4.9802,4.9837,4.9844,4.9847,4.9862,4.9855,4.9841,4.985,4.9716,4.9843,4.9842,4.9842,4.9842,4.9841,4.9064,4.9114,4.9178,4.9249,4.9296,4.9349,4.94,4.944,4.9503,4.9581,4.9598,4.9676,4.9736,4.9833,4.9871,4.9932,4.9922,4.9943,4.9948,4.9953,4.9955,4.9831,4.9945,4.9944,4.9944,4.9944,4.9944,0,4.9162,4.9204,4.9269,4.9349,4.9405,4.9409,4.9472,4.9518,4.9587,4.9643,4.9702,4.9788,4.9858,4.9908,4.9979,5.0018,5.0023,5.0036,5.0033,5.0042,4.996,4.994,5.0031,5.0031,5.0031,5.0031,5.0031,5.0031,4.9219,4.9305,4.933,4.9439,4.948,4.9559,4.9595,4.9644,4.9689,4.9785,4.9844,4.9877,4.993,5.0006,5.007,5.0083,5.0108,5.0121,5.0134,5.0056,5.0047,5.0038,5.002,5.0126,5.0126,5.0211,5.0212,5.0212]}]]